Time,TemperatureF,DewpointF,PressureIn,WindDirection,WindDirectionDegrees,WindSpeedMPH,WindSpeedGustMPH,Humidity,HourlyPrecipIn,Conditions,Clouds,dailyrainin,SoftwareType,DateUTC
2013-10-03 00:00:00,52.7,37.4,29.96,North,9,2.0,3.0,56,0.00,CL,CL,0.00,WeatherDisplay:10.37,2013-10-03 04:00:00,
2013-10-03 00:01:00,68.9,68.0,30.12,SSW,202,0.0,0.0,97,0.00,OVC,,0.00,WeatherDisplay:10.37,2013-10-03 04:01:00,
2013-10-03 00:02:00,68.9,68.0,30.12,SSW,202,0.0,0.0,97,0.00,OVC,,0.00,WeatherDisplay:10.37,2013-10-03 04:02:00,
2013-10-03 00:03:00,68.9,68.0,30.12,SSW,202,0.0,0.0,97,0.00,OVC,,0.00,WeatherDisplay:10.37,2013-10-03 04:03:00,
2013-10-03 00:04:00,68.9,68.0,30.12,SSW,202,0.0,0.0,97,0.00,OVC,,0.00,WeatherDisplay:10.37,2013-10-03 04:04:00,
2013-10-03 00:09:00,68.9,68.0,30.12,SSW,202,0.0,0.0,97,0.00,OVC,,0.00,WeatherDisplay:10.37,2013-10-03 04:09:00,
2013-10-03 00:14:00,68.9,68.0,30.12,SSW,202,1.2,0.0,97,0.00,BKN,,0.00,WeatherDisplay:10.37,2013-10-03 04:14:00,
2013-10-03 00:19:00,68.9,68.0,30.12,SSW,202,0.0,0.0,97,0.00,BKN,,0.00,WeatherDisplay:10.37,2013-10-03 04:19:00,
2013-10-03 00:24:00,68.9,68.0,30.12,SSW,202,0.0,0.0,97,0.00,BKN,,0.00,WeatherDisplay:10.37,2013-10-03 04:24:00,
2013-10-03 00:29:00,68.9,68.0,30.12,SSW,202,1.2,1.2,97,0.00,BKN,,0.00,WeatherDisplay:10.37,2013-10-03 04:29:00,
2013-10-03 00:34:00,68.9,68.0,30.12,SSW,202,1.2,0.0,97,0.00,BKN,,0.00,WeatherDisplay:10.37,2013-10-03 04:34:00,
2013-10-03 00:39:00,68.9,68.0,30.12,SSW,202,0.0,0.0,97,0.00,BKN,,0.00,WeatherDisplay:10.37,2013-10-03 04:39:00,
2013-10-03 00:44:00,68.7,67.8,30.12,SSW,202,0.0,0.0,97,0.00,BKN,,0.00,WeatherDisplay:10.37,2013-10-03 04:44:00,
2013-10-03 00:49:00,68.9,68.0,30.12,SSW,202,2.0,2.0,97,0.00,BKN,,0.00,WeatherDisplay:10.37,2013-10-03 04:49:00,
2013-10-03 00:54:00,68.7,67.8,30.12,SSW,202,1.2,0.0,97,0.00,BKN,,0.00,WeatherDisplay:10.37,2013-10-03 04:54:00,
2013-10-03 00:59:00,68.7,67.8,30.12,SSW,202,2.3,2.3,97,0.00,BKN,,0.00,WeatherDisplay:10.37,2013-10-03 04:59:00,
2013-10-03 01:00:00,52.5,43.8,29.96,North,8,2.0,3.0,72,0.00,CL,CL,0.00,WeatherDisplay:10.37,2013-10-03 05:00:00,
2013-10-03 01:04:00,68.7,67.8,30.12,SSW,202,1.4,1.4,97,0.00,BKN,,0.00,WeatherDisplay:10.37,2013-10-03 05:04:00,
2013-10-03 01:10:00,68.7,67.8,30.12,SSW,202,2.3,2.3,97,0.00,BKN,,0.00,WeatherDisplay:10.37,2013-10-03 05:10:00,
2013-10-03 01:15:00,68.7,67.8,30.12,SSW,202,1.2,0.0,97,0.00,-RA,,0.00,WeatherDisplay:10.37,2013-10-03 05:15:00,
2013-10-03 01:20:00,68.7,67.8,30.12,SSW,202,1.2,1.2,97,0.00,-RA,,0.00,WeatherDisplay:10.37,2013-10-03 05:20:00,
2013-10-03 01:24:00,68.5,67.7,30.12,SSW,202,0.0,0.0,97,0.00,-RA,,0.00,WeatherDisplay:10.37,2013-10-03 05:24:00,
2013-10-03 01:29:00,68.5,67.7,30.12,SSW,202,0.0,0.0,97,0.00,-RA,,0.00,WeatherDisplay:10.37,2013-10-03 05:29:00,
2013-10-03 01:35:00,68.5,67.7,30.12,SSW,202,1.2,1.2,97,0.00,-RA,,0.00,WeatherDisplay:10.37,2013-10-03 05:35:00,
2013-10-03 01:40:00,68.5,67.7,30.12,SSW,202,1.2,0.0,97,0.00,-RA,,0.00,WeatherDisplay:10.37,2013-10-03 05:40:00,
2013-10-03 01:45:00,68.5,67.7,30.12,SSW,202,2.3,2.3,97,0.00,-RA,,0.00,WeatherDisplay:10.37,2013-10-03 05:45:00,
2013-10-03 01:50:00,68.5,67.7,30.09,SSW,202,0.0,0.0,97,0.00,-RA,,0.00,WeatherDisplay:10.37,2013-10-03 05:50:00,
2013-10-03 01:55:00,68.4,67.5,30.09,SSW,202,1.2,1.2,97,0.00,-RA,,0.00,WeatherDisplay:10.37,2013-10-03 05:55:00,
2013-10-03 02:00:00,68.4,67.5,30.09,SSW,202,1.2,1.2,97,0.00,-RA,,0.00,WeatherDisplay:10.37,2013-10-03 06:00:00,
2013-10-03 02:05:00,68.4,67.5,30.12,SSW,202,3.5,3.5,97,0.00,-RA,,0.00,WeatherDisplay:10.37,2013-10-03 06:05:00,
2013-10-03 02:10:00,68.4,67.5,30.12,SSW,202,2.3,2.3,97,0.00,-RA,,0.00,WeatherDisplay:10.37,2013-10-03 06:10:00,
2013-10-03 02:15:00,68.4,67.5,30.12,SSW,202,2.3,2.3,97,0.00,-RA,,0.00,WeatherDisplay:10.37,2013-10-03 06:15:00,
2013-10-03 02:20:00,68.4,67.5,30.09,SSW,202,3.5,3.5,97,0.00,-RA,,0.00,WeatherDisplay:10.37,2013-10-03 06:20:00,
2013-10-03 02:25:00,68.4,67.5,30.09,SSW,202,2.0,0.0,97,0.00,-RA,,0.00,WeatherDisplay:10.37,2013-10-03 06:25:00,
2013-10-03 02:30:00,68.4,67.5,30.09,SSW,202,1.4,0.0,97,0.00,BKN,,0.00,WeatherDisplay:10.37,2013-10-03 06:30:00,
2013-10-03 02:35:00,68.4,67.5,30.12,SSW,202,0.0,0.0,97,0.00,BKN,,0.00,WeatherDisplay:10.37,2013-10-03 06:35:00,
2013-10-03 02:40:00,68.4,67.5,30.12,SSW,202,1.2,0.0,97,0.00,BKN,,0.00,WeatherDisplay:10.37,2013-10-03 06:40:00,
2013-10-03 02:45:00,68.2,67.3,30.12,SSW,202,1.4,0.0,97,0.00,BKN,,0.00,WeatherDisplay:10.37,2013-10-03 06:45:00,
2013-10-03 02:49:00,67.1,66.2,30.12,SSW,202,0.0,0.0,97,0.00,OVC,OVC,0.00,WeatherDisplay:10.37,2013-10-03 06:49:00,
2013-10-03 02:50:00,68.2,67.3,30.12,SSW,202,1.2,0.0,97,0.00,BKN,,0.00,WeatherDisplay:10.37,2013-10-03 06:50:00,
2013-10-03 02:51:00,67.1,66.2,30.12,SSW,202,0.0,0.0,97,0.00,OVC,OVC,0.00,WeatherDisplay:10.37,2013-10-03 06:51:00,
2013-10-03 02:52:00,67.1,66.2,30.12,SSW,202,0.0,0.0,97,0.00,OVC,OVC,0.00,WeatherDisplay:10.37,2013-10-03 06:52:00,
2013-10-03 02:53:00,67.1,66.2,30.12,SSW,202,0.0,0.0,97,0.00,OVC,OVC,0.00,WeatherDisplay:10.37,2013-10-03 06:53:00,
2013-10-03 02:54:00,67.1,66.2,30.12,SSW,202,0.0,0.0,97,0.00,OVC,OVC,0.00,WeatherDisplay:10.37,2013-10-03 06:54:00,
2013-10-03 02:55:00,68.2,67.3,30.12,SSW,202,0.0,0.0,97,0.00,BKN,,0.00,WeatherDisplay:10.37,2013-10-03 06:55:00,
2013-10-03 02:56:00,67.1,66.2,30.12,SSW,202,0.0,0.0,97,0.00,OVC,OVC,0.00,WeatherDisplay:10.37,2013-10-03 06:56:00,
2013-10-03 02:57:00,67.1,66.2,30.12,SSW,202,0.0,0.0,97,0.00,OVC,OVC,0.00,WeatherDisplay:10.37,2013-10-03 06:57:00,
2013-10-03 02:58:00,67.1,66.2,30.12,SSW,202,0.0,0.0,97,0.00,OVC,OVC,0.00,WeatherDisplay:10.37,2013-10-03 06:58:00,
2013-10-03 02:59:00,67.1,66.2,30.12,SSW,202,0.0,0.0,97,0.00,OVC,OVC,0.00,WeatherDisplay:10.37,2013-10-03 06:59:00,
2013-10-03 03:00:00,68.2,67.3,30.12,SSW,202,1.2,1.4,97,0.00,BKN,,0.00,WeatherDisplay:10.37,2013-10-03 07:00:00,
2013-10-03 03:01:00,67.1,66.2,30.12,SSW,202,0.0,0.0,97,0.00,OVC,OVC,0.00,WeatherDisplay:10.37,2013-10-03 07:01:00,
2013-10-03 03:02:00,67.1,66.2,30.12,SSW,202,0.0,0.0,97,0.00,OVC,OVC,0.00,WeatherDisplay:10.37,2013-10-03 07:02:00,
2013-10-03 03:03:00,67.1,66.2,30.12,SSW,202,0.0,0.0,97,0.00,OVC,OVC,0.00,WeatherDisplay:10.37,2013-10-03 07:03:00,
2013-10-03 03:05:00,68.0,67.1,30.09,SSW,202,0.0,0.0,97,0.00,BKN,,0.00,WeatherDisplay:10.37,2013-10-03 07:05:00,
2013-10-03 03:10:00,68.0,67.1,30.09,SSW,202,2.0,2.0,97,0.00,BKN,,0.00,WeatherDisplay:10.37,2013-10-03 07:10:00,
2013-10-03 03:15:00,68.2,67.3,30.09,SSW,202,2.3,2.3,97,0.00,BKN,,0.00,WeatherDisplay:10.37,2013-10-03 07:15:00,
2013-10-03 03:20:00,68.0,67.1,30.09,SSW,202,2.3,2.3,97,0.00,BKN,,0.00,WeatherDisplay:10.37,2013-10-03 07:20:00,
2013-10-03 03:25:00,68.0,67.1,30.09,SSW,202,1.2,0.0,97,0.00,BKN,,0.00,WeatherDisplay:10.37,2013-10-03 07:25:00,
2013-10-03 03:30:00,68.0,67.1,30.09,SSW,202,2.3,2.3,97,0.00,BKN,,0.00,WeatherDisplay:10.37,2013-10-03 07:30:00,
2013-10-03 03:35:00,68.0,67.1,30.09,SSW,202,0.0,0.0,97,0.00,BKN,,0.00,WeatherDisplay:10.37,2013-10-03 07:35:00,
2013-10-03 03:40:00,68.0,67.1,30.09,SSW,202,0.0,0.0,97,0.00,BKN,,0.00,WeatherDisplay:10.37,2013-10-03 07:40:00,
2013-10-03 03:44:00,67.8,66.9,30.09,SSW,202,0.0,0.0,97,0.00,BKN,,0.00,WeatherDisplay:10.37,2013-10-03 07:44:00,
2013-10-03 03:49:00,67.8,66.9,30.09,SSW,202,0.0,0.0,97,0.00,BKN,,0.00,WeatherDisplay:10.37,2013-10-03 07:49:00,
2013-10-03 03:54:00,67.6,66.8,30.09,SSW,202,0.0,0.0,97,0.00,BKN,,0.00,WeatherDisplay:10.37,2013-10-03 07:54:00,
2013-10-03 03:59:00,67.6,66.8,30.09,SSW,202,0.0,0.0,97,0.00,BKN,,0.00,WeatherDisplay:10.37,2013-10-03 07:59:00,
2013-10-03 04:00:00,51.6,43.2,30.02,North,8,0.0,0.0,73,0.00,CL,CL,0.00,WeatherDisplay:10.37,2013-10-03 08:00:00,
2013-10-03 04:04:00,67.6,66.8,30.06,SSW,202,0.0,0.0,97,0.00,BKN,,0.00,WeatherDisplay:10.37,2013-10-03 08:04:00,
2013-10-03 04:09:00,67.6,66.8,30.06,SSW,202,0.0,0.0,97,0.00,BKN,,0.00,WeatherDisplay:10.37,2013-10-03 08:09:00,
2013-10-03 04:14:00,67.5,66.6,30.06,SSW,202,0.0,0.0,97,0.00,SCT,,0.00,WeatherDisplay:10.37,2013-10-03 08:14:00,
2013-10-03 04:19:00,67.5,66.6,30.06,SSW,202,0.0,0.0,97,0.00,SCT,,0.00,WeatherDisplay:10.37,2013-10-03 08:19:00,
2013-10-03 04:24:00,67.3,66.4,30.06,SSW,202,0.0,0.0,97,0.00,SCT,,0.00,WeatherDisplay:10.37,2013-10-03 08:24:00,
2013-10-03 04:29:00,67.5,66.6,30.06,SSW,202,1.4,0.0,97,0.00,SCT,,0.00,WeatherDisplay:10.37,2013-10-03 08:29:00,
2013-10-03 04:34:00,67.3,66.4,30.09,SSW,202,0.0,0.0,97,0.00,SCT,,0.00,WeatherDisplay:10.37,2013-10-03 08:34:00,
2013-10-03 04:39:00,67.3,66.4,30.09,SSW,202,0.0,0.0,97,0.00,SCT,,0.00,WeatherDisplay:10.37,2013-10-03 08:39:00,
2013-10-03 04:44:00,67.3,66.4,30.09,SSW,202,0.0,0.0,97,0.00,SCT,,0.00,WeatherDisplay:10.37,2013-10-03 08:44:00,
2013-10-03 04:49:00,67.3,66.4,30.06,SSW,202,0.0,0.0,97,0.00,SCT,,0.00,WeatherDisplay:10.37,2013-10-03 08:49:00,
2013-10-03 04:54:00,67.5,66.6,30.06,SSW,202,0.0,0.0,97,0.00,SCT,,0.00,WeatherDisplay:10.37,2013-10-03 08:54:00,
2013-10-03 04:59:00,67.3,66.4,30.06,SSW,202,0.0,0.0,97,0.00,SCT,,0.00,WeatherDisplay:10.37,2013-10-03 08:59:00,
2013-10-03 05:00:00,52.8,52.8,29.99,North,8,1.0,2.0,100,0.00,CL,CL,0.00,WeatherDisplay:10.37,2013-10-03 09:00:00,
2013-10-03 05:04:00,67.5,66.6,30.09,SSW,202,0.0,0.0,97,0.00,SCT,,0.00,WeatherDisplay:10.37,2013-10-03 09:04:00,
2013-10-03 05:09:00,67.3,66.4,30.09,SSW,202,0.0,0.0,97,0.00,SCT,,0.00,WeatherDisplay:10.37,2013-10-03 09:09:00,
2013-10-03 05:14:00,67.1,66.2,30.09,SSW,202,0.0,0.0,97,0.00,SCT,,0.00,WeatherDisplay:10.37,2013-10-03 09:14:00,
2013-10-03 05:19:00,67.1,66.2,30.09,SSW,202,0.0,0.0,97,0.00,SCT,,0.00,WeatherDisplay:10.37,2013-10-03 09:19:00,
2013-10-03 05:24:00,67.1,66.2,30.09,SSW,202,0.0,0.0,97,0.00,SCT,,0.00,WeatherDisplay:10.37,2013-10-03 09:24:00,
2013-10-03 05:29:00,67.1,66.2,30.09,SSW,202,0.0,0.0,97,0.00,BKN,,0.00,WeatherDisplay:10.37,2013-10-03 09:29:00,
2013-10-03 05:34:00,67.1,66.2,30.09,SSW,202,0.0,0.0,97,0.00,BKN,,0.00,WeatherDisplay:10.37,2013-10-03 09:34:00,
2013-10-03 05:43:00,67.1,66.2,30.09,SSW,202,0.0,0.0,97,0.00,BKN,,0.00,WeatherDisplay:10.37,2013-10-03 09:43:00,
2013-10-03 05:48:00,67.1,66.2,30.09,SSW,202,1.2,1.2,97,0.00,BKN,,0.00,WeatherDisplay:10.37,2013-10-03 09:48:00,
2013-10-03 05:53:00,67.1,66.2,30.09,SSW,202,0.0,0.0,97,0.00,BKN,,0.00,WeatherDisplay:10.37,2013-10-03 09:53:00,
2013-10-03 05:58:00,67.1,66.2,30.09,SSW,202,0.0,0.0,97,0.00,BKN,,0.00,WeatherDisplay:10.37,2013-10-03 09:58:00,
2013-10-03 06:00:00,57.6,57.6,30.05,North,9,3.0,6.0,100,0.00,CL,CL,0.00,WeatherDisplay:10.37,2013-10-03 10:00:00,
2013-10-03 06:03:00,67.1,66.2,30.09,SSW,202,0.0,0.0,97,0.00,BKN,,0.00,WeatherDisplay:10.37,2013-10-03 10:03:00,
2013-10-03 06:08:00,67.1,66.2,30.09,SSW,202,0.0,0.0,97,0.00,BKN,,0.00,WeatherDisplay:10.37,2013-10-03 10:08:00,
2013-10-03 06:13:00,66.9,66.0,30.09,SSW,202,0.0,0.0,97,0.00,BKN,,0.00,WeatherDisplay:10.37,2013-10-03 10:13:00,
2013-10-03 06:18:00,67.1,66.2,30.09,SSW,202,0.0,0.0,97,0.00,BKN,,0.00,WeatherDisplay:10.37,2013-10-03 10:18:00,
2013-10-03 06:23:00,67.1,66.2,30.09,SSW,202,0.0,0.0,97,0.00,BKN,,0.00,WeatherDisplay:10.37,2013-10-03 10:23:00,
2013-10-03 06:28:00,67.1,66.2,30.09,SSW,202,0.0,0.0,97,0.00,BKN,,0.00,WeatherDisplay:10.37,2013-10-03 10:28:00,
2013-10-03 06:33:00,67.1,66.2,30.09,SSW,202,0.0,0.0,97,0.00,BKN,,0.00,WeatherDisplay:10.37,2013-10-03 10:33:00,
2013-10-03 06:38:00,67.1,66.2,30.09,SSW,202,0.0,0.0,97,0.00,BKN,,0.00,WeatherDisplay:10.37,2013-10-03 10:38:00,
2013-10-03 06:43:00,67.1,66.2,30.09,SSW,202,0.0,0.0,97,0.00,BKN,,0.00,WeatherDisplay:10.37,2013-10-03 10:43:00,
2013-10-03 06:48:00,67.1,66.2,30.09,SSW,202,0.0,0.0,97,0.00,BKN,,0.00,WeatherDisplay:10.37,2013-10-03 10:48:00,
2013-10-03 06:53:00,67.1,66.2,30.09,SSW,202,0.0,0.0,97,0.00,BKN,,0.00,WeatherDisplay:10.37,2013-10-03 10:53:00,
2013-10-03 06:58:00,67.1,66.2,30.09,SSW,202,0.0,0.0,97,0.00,BKN,,0.00,WeatherDisplay:10.37,2013-10-03 10:58:00,
2013-10-03 07:00:00,64.3,54.7,30.08,North,9,5.0,5.0,71,0.00,CL,CL,0.00,WeatherDisplay:10.37,2013-10-03 11:00:00,
2013-10-03 07:03:00,67.1,66.2,30.12,SSW,202,0.0,0.0,97,0.00,BKN,,0.00,WeatherDisplay:10.37,2013-10-03 11:03:00,
2013-10-03 07:08:00,66.9,66.0,30.12,SSW,202,0.0,0.0,97,0.00,BKN,,0.00,WeatherDisplay:10.37,2013-10-03 11:08:00,
2013-10-03 07:13:00,66.9,66.0,30.12,SSW,202,0.0,0.0,97,0.00,BKN,,0.00,WeatherDisplay:10.37,2013-10-03 11:13:00,
2013-10-03 07:18:00,66.9,66.0,30.12,SSW,202,0.0,0.0,97,0.00,BKN,,0.00,WeatherDisplay:10.37,2013-10-03 11:18:00,
2013-10-03 07:23:00,66.9,66.0,30.12,SSW,202,0.0,0.0,97,0.00,BKN,,0.00,WeatherDisplay:10.37,2013-10-03 11:23:00,
2013-10-03 07:28:00,67.1,66.2,30.12,SSW,202,0.0,0.0,97,0.00,BKN,,0.00,WeatherDisplay:10.37,2013-10-03 11:28:00,
2013-10-03 07:33:00,67.1,66.2,30.12,SSW,202,0.0,0.0,97,0.00,BKN,,0.00,WeatherDisplay:10.37,2013-10-03 11:33:00,
2013-10-03 07:38:00,67.1,66.2,30.12,SSW,202,0.0,0.0,97,0.00,BKN,,0.00,WeatherDisplay:10.37,2013-10-03 11:38:00,
2013-10-03 07:54:00,67.1,66.2,30.12,North,0,0.0,0.0,97,0.00,BKN,,0.00,WeatherDisplay:10.37,2013-10-03 11:54:00,
2013-10-03 07:59:00,67.1,66.2,30.12,SSW,202,0.0,0.0,97,0.00,OVC,,0.00,WeatherDisplay:10.37,2013-10-03 11:59:00,
2013-10-03 08:00:00,69.3,56.2,30.08,North,10,7.0,8.0,63,0.00,CL,CL,0.00,WeatherDisplay:10.37,2013-10-03 12:00:00,
2013-10-03 08:04:00,67.1,66.2,30.12,SSW,202,0.0,0.0,97,0.00,OVC,,0.00,WeatherDisplay:10.37,2013-10-03 12:04:00,
2013-10-03 08:09:00,67.1,66.2,30.12,SSW,202,0.0,0.0,97,0.00,OVC,,0.00,WeatherDisplay:10.37,2013-10-03 12:09:00,
2013-10-03 08:14:00,67.3,66.4,30.12,SSW,202,0.0,0.0,97,0.00,OVC,,0.00,WeatherDisplay:10.37,2013-10-03 12:14:00,
2013-10-03 08:19:00,67.3,66.4,30.12,SSW,202,0.0,0.0,97,0.00,OVC,,0.00,WeatherDisplay:10.37,2013-10-03 12:19:00,
2013-10-03 08:24:00,67.3,66.4,30.12,SSW,202,0.0,0.0,97,0.00,OVC,,0.00,WeatherDisplay:10.37,2013-10-03 12:24:00,
2013-10-03 08:29:00,67.5,66.6,30.12,SSW,202,0.0,0.0,97,0.00,OVC,,0.00,WeatherDisplay:10.37,2013-10-03 12:29:00,
2013-10-03 08:34:00,67.5,66.6,30.12,SSW,202,0.0,0.0,97,0.00,OVC,,0.00,WeatherDisplay:10.37,2013-10-03 12:34:00,
2013-10-03 08:39:00,67.6,66.8,30.12,SSW,202,0.0,0.0,97,0.00,OVC,,0.00,WeatherDisplay:10.37,2013-10-03 12:39:00,
2013-10-03 08:44:00,67.8,66.9,30.12,SSW,202,0.0,0.0,97,0.00,OVC,,0.00,WeatherDisplay:10.37,2013-10-03 12:44:00,
2013-10-03 08:49:00,67.8,66.9,30.12,SSW,202,0.0,0.0,97,0.00,OVC,,0.00,WeatherDisplay:10.37,2013-10-03 12:49:00,
2013-10-03 08:54:00,68.0,67.1,30.12,SSW,202,0.0,0.0,97,0.00,OVC,,0.00,WeatherDisplay:10.37,2013-10-03 12:54:00,
2013-10-03 08:59:00,68.2,67.3,30.12,SSW,202,0.0,0.0,97,0.00,OVC,,0.00,WeatherDisplay:10.37,2013-10-03 12:59:00,
2013-10-03 09:00:00,72.6,57.9,30.08,North,10,6.0,8.0,60,0.00,CL,CL,0.00,WeatherDisplay:10.37,2013-10-03 13:00:00,
2013-10-03 09:04:00,68.4,67.5,30.12,SSW,202,0.0,0.0,97,0.00,OVC,,0.00,WeatherDisplay:10.37,2013-10-03 13:04:00,
2013-10-03 09:09:00,68.5,67.7,30.12,SSW,202,0.0,0.0,97,0.00,OVC,,0.00,WeatherDisplay:10.37,2013-10-03 13:09:00,
2013-10-03 09:14:00,68.7,67.8,30.12,SSW,202,0.0,0.0,97,0.00,OVC,,0.00,WeatherDisplay:10.37,2013-10-03 13:14:00,
2013-10-03 09:19:00,68.9,68.0,30.12,SSW,202,0.0,0.0,97,0.00,OVC,,0.00,WeatherDisplay:10.37,2013-10-03 13:19:00,
2013-10-03 09:24:00,69.1,68.2,30.12,SSW,202,0.0,0.0,97,0.00,OVC,,0.00,WeatherDisplay:10.37,2013-10-03 13:24:00,
2013-10-03 09:29:00,69.4,68.6,30.12,SSW,202,0.0,0.0,97,0.00,OVC,,0.00,WeatherDisplay:10.37,2013-10-03 13:29:00,
2013-10-03 09:34:00,69.6,68.7,30.12,SSW,202,0.0,0.0,97,0.00,OVC,,0.00,WeatherDisplay:10.37,2013-10-03 13:34:00,
2013-10-03 09:39:00,69.8,68.9,30.12,SSW,202,0.0,0.0,97,0.00,OVC,,0.00,WeatherDisplay:10.37,2013-10-03 13:39:00,
2013-10-03 09:44:00,70.0,69.1,30.12,SSW,202,0.0,0.0,97,0.00,OVC,,0.00,WeatherDisplay:10.37,2013-10-03 13:44:00,
2013-10-03 09:49:00,70.2,69.3,30.09,SSW,202,0.0,0.0,97,0.00,OVC,,0.00,WeatherDisplay:10.37,2013-10-03 13:49:00,
2013-10-03 09:54:00,70.3,69.4,30.09,SSW,202,0.0,0.0,97,0.00,OVC,,0.00,WeatherDisplay:10.37,2013-10-03 13:54:00,
2013-10-03 09:59:00,70.2,69.3,30.09,SSW,202,1.2,0.0,97,0.00,OVC,,0.00,WeatherDisplay:10.37,2013-10-03 13:59:00,
2013-10-03 10:00:00,74.8,59.5,30.02,North,9,6.0,9.0,59,0.00,CL,CL,0.00,WeatherDisplay:10.37,2013-10-03 14:00:00,
2013-10-03 10:04:00,70.2,68.4,30.12,SSW,202,1.6,1.6,94,0.00,OVC,,0.00,WeatherDisplay:10.37,2013-10-03 14:04:00,
2013-10-03 10:09:00,70.5,69.6,30.12,SSW,202,0.0,0.0,97,0.00,OVC,,0.00,WeatherDisplay:10.37,2013-10-03 14:09:00,
2013-10-03 10:14:00,71.1,70.2,30.12,SSW,202,0.0,0.0,97,0.00,OVC,,0.00,WeatherDisplay:10.37,2013-10-03 14:14:00,
2013-10-03 10:19:00,71.4,70.5,30.12,SSW,202,0.0,0.0,97,0.00,OVC,,0.00,WeatherDisplay:10.37,2013-10-03 14:19:00,
2013-10-03 10:24:00,71.6,70.1,30.12,SSW,202,2.3,2.3,95,0.00,OVC,,0.00,WeatherDisplay:10.37,2013-10-03 14:24:00,
2013-10-03 10:29:00,72.0,70.8,30.12,SSW,202,1.6,1.6,96,0.00,OVC,,0.00,WeatherDisplay:10.37,2013-10-03 14:29:00,
2013-10-03 10:34:00,72.3,70.5,30.12,SSW,202,0.0,0.0,94,0.00,OVC,,0.00,WeatherDisplay:10.37,2013-10-03 14:34:00,
2013-10-03 10:39:00,72.5,70.0,30.12,SSW,202,0.0,0.0,92,0.00,OVC,,0.00,WeatherDisplay:10.37,2013-10-03 14:39:00,
2013-10-03 10:44:00,72.5,69.4,30.12,SSW,202,2.3,2.3,90,0.00,OVC,,0.00,WeatherDisplay:10.37,2013-10-03 14:44:00,
2013-10-03 10:49:00,72.7,69.6,30.12,SSW,202,0.0,0.0,90,0.00,OVC,,0.00,WeatherDisplay:10.37,2013-10-03 14:49:00,
2013-10-03 10:54:00,72.7,69.2,30.12,SSW,202,0.0,0.0,89,0.00,OVC,,0.00,WeatherDisplay:10.37,2013-10-03 14:54:00,
2013-10-03 10:59:00,72.5,68.4,30.12,SSW,202,1.2,1.2,87,0.00,OVC,,0.00,WeatherDisplay:10.37,2013-10-03 14:59:00,
2013-10-03 11:00:00,77.2,61.7,30.02,North,10,6.0,8.0,59,0.00,CL,CL,0.00,WeatherDisplay:10.37,2013-10-03 15:00:00,
2013-10-03 11:04:00,72.5,68.7,30.12,SSW,202,1.2,0.0,88,0.00,OVC,,0.00,WeatherDisplay:10.37,2013-10-03 15:04:00,
2013-10-03 11:09:00,72.7,68.9,30.12,SSW,202,1.2,1.4,88,0.00,OVC,,0.00,WeatherDisplay:10.37,2013-10-03 15:09:00,
2013-10-03 11:14:00,72.7,67.6,30.12,SSW,202,2.3,2.3,84,0.00,OVC,,0.00,WeatherDisplay:10.37,2013-10-03 15:14:00,
2013-10-03 11:19:00,73.4,67.9,30.12,SSW,202,1.2,1.2,83,0.00,OVC,,0.00,WeatherDisplay:10.37,2013-10-03 15:19:00,
2013-10-03 11:24:00,74.7,69.5,30.12,SSW,202,0.0,0.0,84,0.00,OVC,,0.00,WeatherDisplay:10.37,2013-10-03 15:24:00,
2013-10-03 11:29:00,75.4,68.0,30.12,SSW,202,1.2,1.2,78,0.00,BKN,,0.00,WeatherDisplay:10.37,2013-10-03 15:29:00,
2013-10-03 11:34:00,75.2,67.1,30.12,SSW,202,5.8,5.8,76,0.00,BKN,,0.00,WeatherDisplay:10.37,2013-10-03 15:34:00,
2013-10-03 11:39:00,75.4,67.3,30.12,SSW,202,3.6,3.6,76,0.00,BKN,,0.00,WeatherDisplay:10.37,2013-10-03 15:39:00,
2013-10-03 11:44:00,75.7,67.2,30.12,SSW,202,5.8,5.8,75,0.00,BKN,,0.00,WeatherDisplay:10.37,2013-10-03 15:44:00,
2013-10-03 11:49:00,76.1,67.6,30.12,SSW,202,5.8,5.8,75,0.00,BKN,,0.00,WeatherDisplay:10.37,2013-10-03 15:49:00,
2013-10-03 11:54:00,77.4,68.8,30.12,SSW,202,3.5,3.5,75,0.00,BKN,,0.00,WeatherDisplay:10.37,2013-10-03 15:54:00,
2013-10-03 11:59:00,76.3,67.0,30.12,SW,225,6.2,6.2,73,0.00,BKN,,0.00,WeatherDisplay:10.37,2013-10-03 15:59:00,
2013-10-03 12:00:00,76.3,61.8,30.02,North,10,5.0,7.0,61,0.00,CL,CL,0.00,WeatherDisplay:10.37,2013-10-03 16:00:00,
2013-10-03 12:04:00,76.3,67.0,30.12,SW,225,8.1,8.1,73,0.00,BKN,,0.00,WeatherDisplay:10.37,2013-10-03 16:04:00,
2013-10-03 12:09:00,76.3,67.0,30.12,SW,225,5.8,5.8,73,0.00,BKN,,0.00,WeatherDisplay:10.37,2013-10-03 16:09:00,
2013-10-03 12:14:00,77.0,67.7,30.12,SW,225,5.8,5.8,73,0.00,OVC,,0.00,WeatherDisplay:10.37,2013-10-03 16:14:00,
2013-10-03 12:19:00,79.2,69.4,30.12,SW,225,5.8,5.8,72,0.00,OVC,,0.00,WeatherDisplay:10.37,2013-10-03 16:19:00,
2013-10-03 12:24:00,78.1,67.5,30.12,SW,225,5.6,5.6,70,0.00,OVC,,0.00,WeatherDisplay:10.37,2013-10-03 16:24:00,
2013-10-03 12:29:00,78.8,68.2,30.12,SW,225,5.8,5.8,70,0.00,OVC,,0.00,WeatherDisplay:10.37,2013-10-03 16:29:00,
2013-10-03 12:34:00,77.9,67.3,30.12,SW,225,4.6,4.6,70,0.00,OVC,,0.00,WeatherDisplay:10.37,2013-10-03 16:34:00,
2013-10-03 12:39:00,79.7,69.0,30.12,SW,225,6.9,6.9,70,0.00,OVC,,0.00,WeatherDisplay:10.37,2013-10-03 16:39:00,
2013-10-03 12:44:00,78.6,68.0,30.12,SW,225,4.6,4.6,70,0.00,OVC,,0.00,WeatherDisplay:10.37,2013-10-03 16:44:00,
2013-10-03 12:49:00,79.7,69.0,30.12,SW,225,3.5,3.5,70,0.00,OVC,,0.00,WeatherDisplay:10.37,2013-10-03 16:49:00,
2013-10-03 12:54:00,80.6,69.5,30.12,SW,225,4.6,4.6,69,0.00,OVC,,0.00,WeatherDisplay:10.37,2013-10-03 16:54:00,
2013-10-03 12:59:00,81.7,70.5,30.12,SW,225,6.9,6.9,69,0.00,OVC,,0.00,WeatherDisplay:10.37,2013-10-03 16:59:00,
2013-10-03 13:00:00,75.6,61.2,30.02,North,10,5.0,8.0,61,0.00,CL,CL,0.00,WeatherDisplay:10.37,2013-10-03 17:00:00,
2013-10-03 13:04:00,80.2,69.6,30.12,SW,225,5.8,5.8,70,0.00,OVC,,0.00,WeatherDisplay:10.37,2013-10-03 17:04:00,
2013-10-03 13:09:00,79.9,69.2,30.12,SW,225,4.6,4.6,70,0.00,OVC,,0.00,WeatherDisplay:10.37,2013-10-03 17:09:00,
2013-10-03 13:14:00,81.0,69.8,30.12,SW,225,4.6,4.6,69,0.00,OVC,,0.00,WeatherDisplay:10.37,2013-10-03 17:14:00,
2013-10-03 13:19:00,84.4,72.7,30.12,SW,225,2.3,2.3,68,0.00,OVC,,0.00,WeatherDisplay:10.37,2013-10-03 17:19:00,
2013-10-03 13:24:00,82.9,71.7,30.12,SW,225,1.2,0.0,69,0.00,OVC,,0.00,WeatherDisplay:10.37,2013-10-03 17:24:00,
2013-10-03 13:29:00,81.9,70.7,30.12,SW,225,3.5,3.5,69,0.00,FEW,,0.00,WeatherDisplay:10.37,2013-10-03 17:29:00,
2013-10-03 13:34:00,80.4,69.7,30.09,SW,225,3.5,3.6,70,0.00,FEW,,0.00,WeatherDisplay:10.37,2013-10-03 17:34:00,
2013-10-03 13:39:00,81.3,70.2,30.09,SW,225,0.9,0.0,69,0.00,FEW,,0.00,WeatherDisplay:10.37,2013-10-03 17:39:00,
2013-10-03 13:44:00,80.8,69.7,30.09,SW,225,3.5,3.5,69,0.00,FEW,,0.00,WeatherDisplay:10.37,2013-10-03 17:44:00,
2013-10-03 13:49:00,80.2,69.6,30.09,SW,225,4.6,4.6,70,0.00,FEW,,0.00,WeatherDisplay:10.37,2013-10-03 17:49:00,
2013-10-03 13:54:00,80.4,69.7,30.09,SW,225,2.3,2.3,70,0.00,FEW,,0.00,WeatherDisplay:10.37,2013-10-03 17:54:00,
2013-10-03 13:59:00,80.2,69.6,30.09,SW,225,2.9,2.9,70,0.00,FEW,,0.00,WeatherDisplay:10.37,2013-10-03 17:59:00,
2013-10-03 14:00:00,74.5,60.6,30.02,North,9,5.0,5.0,62,0.00,CL,CL,0.00,WeatherDisplay:10.37,2013-10-03 18:00:00,
2013-10-03 14:04:00,79.9,69.2,30.09,SW,225,3.5,3.5,70,0.00,FEW,,0.00,WeatherDisplay:10.37,2013-10-03 18:04:00,
2013-10-03 14:09:00,78.8,68.2,30.09,SW,225,4.6,4.6,70,0.00,FEW,,0.00,WeatherDisplay:10.37,2013-10-03 18:09:00,
2013-10-03 14:14:00,80.1,69.4,30.09,SW,225,2.3,2.3,70,0.00,FEW,,0.00,WeatherDisplay:10.37,2013-10-03 18:14:00,
2013-10-03 14:19:00,81.5,70.3,30.09,SW,225,3.8,3.8,69,0.00,FEW,,0.00,WeatherDisplay:10.37,2013-10-03 18:19:00,
2013-10-03 14:24:00,82.6,71.4,30.09,SW,225,2.3,2.3,69,0.00,FEW,,0.00,WeatherDisplay:10.37,2013-10-03 18:24:00,
2013-10-03 14:29:00,84.9,73.2,30.09,SW,225,3.5,3.5,68,0.00,FEW,,0.00,WeatherDisplay:10.37,2013-10-03 18:29:00,
2013-10-03 14:34:00,84.2,72.5,30.06,SW,225,5.8,5.8,68,0.00,FEW,,0.00,WeatherDisplay:10.37,2013-10-03 18:34:00,
2013-10-03 14:39:00,84.2,72.5,30.06,South,180,4.6,4.6,68,0.00,FEW,,0.00,WeatherDisplay:10.37,2013-10-03 18:39:00,
2013-10-03 14:44:00,85.5,73.7,30.06,West,270,5.8,5.8,68,0.00,FEW,,0.00,WeatherDisplay:10.37,2013-10-03 18:44:00,
2013-10-03 14:49:00,85.8,74.0,30.03,SW,225,6.9,6.9,68,0.00,FEW,,0.00,WeatherDisplay:10.37,2013-10-03 18:49:00,
2013-10-03 14:54:00,86.4,74.5,30.03,SW,225,4.6,4.6,68,0.00,FEW,,0.00,WeatherDisplay:10.37,2013-10-03 18:54:00,
2013-10-03 14:59:00,85.5,73.7,30.03,SW,225,3.5,3.5,68,0.00,FEW,,0.00,WeatherDisplay:10.37,2013-10-03 18:59:00,
2013-10-03 15:00:00,70.2,55.6,30.05,North,10,2.0,2.0,60,0.00,CL,CL,0.00,WeatherDisplay:10.37,2013-10-03 19:00:00,
2013-10-03 15:04:00,86.0,74.2,30.06,SSW,202,7.4,7.4,68,0.00,FEW,,0.00,WeatherDisplay:10.37,2013-10-03 19:04:00,
2013-10-03 15:09:00,86.2,74.4,30.06,South,180,3.5,3.5,68,0.00,FEW,,0.00,WeatherDisplay:10.37,2013-10-03 19:09:00,
2013-10-03 15:14:00,86.7,74.9,30.06,West,270,3.5,3.5,68,0.00,FEW,,0.00,WeatherDisplay:10.37,2013-10-03 19:14:00,
2013-10-03 15:19:00,87.8,75.9,30.06,South,180,3.5,3.5,68,0.00,FEW,,0.00,WeatherDisplay:10.37,2013-10-03 19:19:00,
2013-10-03 15:24:00,84.4,72.7,30.06,SW,225,4.6,4.6,68,0.00,FEW,,0.00,WeatherDisplay:10.37,2013-10-03 19:24:00,
2013-10-03 15:29:00,85.1,73.3,30.06,SW,225,5.8,5.8,68,0.00,FEW,,0.00,WeatherDisplay:10.37,2013-10-03 19:29:00,
2013-10-03 15:34:00,85.5,73.7,30.06,SW,225,6.9,6.9,68,0.00,FEW,,0.00,WeatherDisplay:10.37,2013-10-03 19:34:00,
2013-10-03 15:39:00,86.0,74.2,30.06,WSW,248,4.6,4.6,68,0.00,FEW,,0.00,WeatherDisplay:10.37,2013-10-03 19:39:00,
2013-10-03 15:44:00,85.8,74.0,30.06,SW,225,5.8,5.8,68,0.00,FEW,,0.00,WeatherDisplay:10.37,2013-10-03 19:44:00,
2013-10-03 15:49:00,85.3,73.5,30.06,SW,225,12.7,12.7,68,0.00,FEW,,0.00,WeatherDisplay:10.37,2013-10-03 19:49:00,
2013-10-03 15:54:00,84.4,72.7,30.06,SW,225,4.6,4.6,68,0.00,FEW,,0.00,WeatherDisplay:10.37,2013-10-03 19:54:00,
2013-10-03 15:59:00,83.5,72.2,30.06,SW,225,4.6,4.6,69,0.00,FEW,,0.00,WeatherDisplay:10.37,2013-10-03 19:59:00,
2013-10-03 16:00:00,64.3,50.6,30.05,North,8,0.0,0.0,61,0.00,CL,CL,0.00,WeatherDisplay:10.37,2013-10-03 20:00:00,
2013-10-03 16:04:00,83.1,71.9,30.06,SSW,202,3.6,3.6,69,0.00,FEW,,0.00,WeatherDisplay:10.37,2013-10-03 20:04:00,
2013-10-03 16:09:00,84.4,72.7,30.06,SW,225,6.9,6.9,68,0.00,FEW,,0.00,WeatherDisplay:10.37,2013-10-03 20:09:00,
2013-10-03 16:14:00,85.8,74.0,30.06,South,180,3.5,3.5,68,0.00,FEW,,0.00,WeatherDisplay:10.37,2013-10-03 20:14:00,
2013-10-03 16:19:00,86.7,74.9,30.06,SSW,202,6.9,6.9,68,0.00,FEW,,0.00,WeatherDisplay:10.37,2013-10-03 20:19:00,
2013-10-03 16:24:00,86.2,74.4,30.06,SW,225,3.5,3.5,68,0.00,FEW,,0.00,WeatherDisplay:10.37,2013-10-03 20:24:00,
2013-10-03 16:29:00,86.7,74.9,30.06,SSW,202,3.5,3.5,68,0.00,FEW,,0.00,WeatherDisplay:10.37,2013-10-03 20:29:00,
2013-10-03 16:34:00,87.1,75.2,30.06,SW,225,4.6,4.6,68,0.00,FEW,,0.00,WeatherDisplay:10.37,2013-10-03 20:34:00,
2013-10-03 16:39:00,88.2,76.3,30.06,WSW,248,3.5,3.5,68,0.00,FEW,,0.00,WeatherDisplay:10.37,2013-10-03 20:39:00,
2013-10-03 16:44:00,88.5,76.6,30.06,South,180,4.6,4.6,68,0.00,FEW,,0.00,WeatherDisplay:10.37,2013-10-03 20:44:00,
2013-10-03 16:49:00,87.8,75.9,30.03,SW,225,3.5,3.5,68,0.00,FEW,,0.00,WeatherDisplay:10.37,2013-10-03 20:49:00,
2013-10-03 16:54:00,87.8,75.9,30.03,SSW,202,4.6,4.6,68,0.00,FEW,,0.00,WeatherDisplay:10.37,2013-10-03 20:54:00,
2013-10-03 16:59:00,86.9,75.1,30.03,South,180,4.6,4.6,68,0.00,FEW,,0.00,WeatherDisplay:10.37,2013-10-03 20:59:00,
2013-10-03 17:00:00,61.0,47.9,30.08,North,8,0.0,0.0,62,0.00,CL,CL,0.00,WeatherDisplay:10.37,2013-10-03 21:00:00,
2013-10-03 17:04:00,87.8,75.9,30.03,South,180,3.5,3.5,68,0.00,FEW,,0.00,WeatherDisplay:10.37,2013-10-03 21:04:00,
2013-10-03 17:09:00,87.6,75.7,30.03,SW,225,5.8,5.8,68,0.00,FEW,,0.00,WeatherDisplay:10.37,2013-10-03 21:09:00,
2013-10-03 17:14:00,85.5,73.7,30.03,SW,225,6.9,6.9,68,0.00,FEW,,0.00,WeatherDisplay:10.37,2013-10-03 21:14:00,
2013-10-03 17:19:00,84.6,72.8,30.03,SW,225,3.5,3.5,68,0.00,FEW,,0.00,WeatherDisplay:10.37,2013-10-03 21:19:00,
2013-10-03 17:24:00,85.1,73.3,30.03,SW,225,3.5,3.5,68,0.00,FEW,,0.00,WeatherDisplay:10.37,2013-10-03 21:24:00,
2013-10-03 17:29:00,86.0,74.2,30.03,SW,225,3.5,3.5,68,0.00,FEW,,0.00,WeatherDisplay:10.37,2013-10-03 21:29:00,
2013-10-03 17:34:00,85.5,73.7,30.03,SW,225,3.5,3.5,68,0.00,FEW,,0.00,WeatherDisplay:10.37,2013-10-03 21:34:00,
2013-10-03 17:39:00,85.3,73.5,30.03,SW,225,4.6,4.6,68,0.00,FEW,,0.00,WeatherDisplay:10.37,2013-10-03 21:39:00,
2013-10-03 17:44:00,84.9,73.2,30.03,SW,225,3.5,3.5,68,0.00,FEW,,0.00,WeatherDisplay:10.37,2013-10-03 21:44:00,
2013-10-03 17:49:00,84.6,72.8,30.03,SW,225,4.6,4.6,68,0.00,FEW,,0.00,WeatherDisplay:10.37,2013-10-03 21:49:00,
2013-10-03 17:54:00,84.4,72.7,30.03,South,180,4.6,4.6,68,0.00,FEW,,0.00,WeatherDisplay:10.37,2013-10-03 21:54:00,
2013-10-03 17:59:00,84.2,72.5,30.03,SSW,202,3.5,3.5,68,0.00,FEW,,0.00,WeatherDisplay:10.37,2013-10-03 21:59:00,
2013-10-03 18:00:00,59.0,48.4,30.08,North,8,0.0,0.0,68,0.00,CL,CL,0.00,WeatherDisplay:10.37,2013-10-03 22:00:00,
2013-10-03 18:04:00,82.9,71.7,30.03,South,180,4.6,4.6,69,0.00,FEW,,0.00,WeatherDisplay:10.37,2013-10-03 22:04:00,
2013-10-03 18:09:00,83.1,71.9,30.03,South,180,5.8,5.8,69,0.00,FEW,,0.00,WeatherDisplay:10.37,2013-10-03 22:09:00,
2013-10-03 18:14:00,82.6,71.4,30.03,South,180,3.5,3.5,69,0.00,FEW,,0.00,WeatherDisplay:10.37,2013-10-03 22:14:00,
2013-10-03 18:19:00,81.3,70.2,30.03,South,180,3.5,3.5,69,0.00,FEW,,0.00,WeatherDisplay:10.37,2013-10-03 22:19:00,
2013-10-03 18:24:00,81.0,69.8,30.03,South,180,2.3,2.3,69,0.00,FEW,,0.00,WeatherDisplay:10.37,2013-10-03 22:24:00,
2013-10-03 18:29:00,81.1,70.0,30.03,South,180,2.3,2.3,69,0.00,CLR,,0.00,WeatherDisplay:10.37,2013-10-03 22:29:00,
2013-10-03 18:34:00,80.8,69.7,30.03,South,180,2.3,2.3,69,0.00,CLR,,0.00,WeatherDisplay:10.37,2013-10-03 22:34:00,
2013-10-03 18:39:00,80.4,69.7,30.03,SW,225,3.5,3.5,70,0.00,CLR,,0.00,WeatherDisplay:10.37,2013-10-03 22:39:00,
2013-10-03 18:44:00,80.1,69.4,30.03,South,180,4.6,4.6,70,0.00,CLR,,0.00,WeatherDisplay:10.37,2013-10-03 22:44:00,
2013-10-03 18:49:00,79.5,68.9,30.03,South,180,3.5,3.5,70,0.00,CLR,,0.00,WeatherDisplay:10.37,2013-10-03 22:49:00,
2013-10-03 18:54:00,79.2,68.5,30.03,South,180,2.3,2.3,70,0.00,CLR,,0.00,WeatherDisplay:10.37,2013-10-03 22:54:00,
2013-10-03 18:59:00,78.4,67.8,30.03,SW,225,2.3,2.3,70,0.00,CLR,,0.00,WeatherDisplay:10.37,2013-10-03 22:59:00,
2013-10-03 19:00:00,58.1,49.1,30.11,North,8,0.0,0.0,72,0.00,CL,CL,0.00,WeatherDisplay:10.37,2013-10-03 23:00:00,
2013-10-03 19:04:00,77.9,67.3,30.03,SW,225,2.3,2.3,70,0.00,CLR,,0.00,WeatherDisplay:10.37,2013-10-03 23:04:00,
2013-10-03 19:09:00,77.5,67.0,30.03,South,180,2.3,2.3,70,0.00,CLR,,0.00,WeatherDisplay:10.37,2013-10-03 23:09:00,
2013-10-03 19:14:00,77.0,66.5,30.03,SSW,202,3.5,3.5,70,0.00,CLR,,0.00,WeatherDisplay:10.37,2013-10-03 23:14:00,
2013-10-03 19:19:00,76.5,65.9,30.03,East,90,0.0,0.0,70,0.00,CLR,,0.00,WeatherDisplay:10.37,2013-10-03 23:19:00,
2013-10-03 19:24:00,75.9,65.4,30.03,East,90,0.0,0.0,70,0.00,CLR,,0.00,WeatherDisplay:10.37,2013-10-03 23:24:00,
2013-10-03 19:29:00,75.2,64.7,30.03,East,90,0.0,0.0,70,0.00,CLR,,0.00,WeatherDisplay:10.37,2013-10-03 23:29:00,
2013-10-03 19:34:00,74.7,64.6,30.06,East,90,0.0,0.0,71,0.00,CLR,,0.00,WeatherDisplay:10.37,2013-10-03 23:34:00,
2013-10-03 19:39:00,74.3,64.3,30.06,East,90,0.0,0.0,71,0.00,CLR,,0.00,WeatherDisplay:10.37,2013-10-03 23:39:00,
2013-10-03 19:44:00,73.9,63.9,30.06,East,90,0.0,0.0,71,0.00,CLR,,0.00,WeatherDisplay:10.37,2013-10-03 23:44:00,
2013-10-03 19:49:00,73.4,63.4,30.06,East,90,0.0,0.0,71,0.00,CLR,,0.00,WeatherDisplay:10.37,2013-10-03 23:49:00,
2013-10-03 19:54:00,73.0,63.1,30.06,East,90,0.0,0.0,71,0.00,CLR,,0.00,WeatherDisplay:10.37,2013-10-03 23:54:00,
2013-10-03 19:59:00,72.9,62.9,30.06,East,90,0.0,0.0,71,0.00,CLR,,0.00,WeatherDisplay:10.37,2013-10-03 23:59:00,
2013-10-03 20:00:00,56.8,48.3,30.11,North,8,0.0,0.0,73,0.00,CL,CL,0.00,WeatherDisplay:10.37,2013-10-04 00:00:00,
2013-10-03 20:04:00,72.5,62.6,30.06,East,90,0.0,0.0,71,0.00,CLR,,0.00,WeatherDisplay:10.37,2013-10-04 00:04:00,
2013-10-03 20:09:00,72.1,62.2,30.06,East,90,0.0,0.0,71,0.00,CLR,,0.00,WeatherDisplay:10.37,2013-10-04 00:09:00,
2013-10-03 20:14:00,71.8,61.9,30.06,East,90,0.0,0.0,71,0.00,CLR,,0.00,WeatherDisplay:10.37,2013-10-04 00:14:00,
2013-10-03 20:19:00,71.6,61.7,30.06,East,90,0.0,0.0,71,0.00,CLR,,0.00,WeatherDisplay:10.37,2013-10-04 00:19:00,
2013-10-03 20:24:00,71.2,61.7,30.06,East,90,0.0,0.0,72,0.00,CLR,,0.00,WeatherDisplay:10.37,2013-10-04 00:24:00,
2013-10-03 20:29:00,71.1,61.6,30.06,East,90,0.0,0.0,72,0.00,CLR,,0.00,WeatherDisplay:10.37,2013-10-04 00:29:00,
2013-10-03 20:34:00,70.9,61.4,30.06,East,90,0.0,0.0,72,0.00,CLR,,0.00,WeatherDisplay:10.37,2013-10-04 00:34:00,
2013-10-03 20:39:00,70.7,61.2,30.06,East,90,0.0,0.0,72,0.00,CLR,,0.00,WeatherDisplay:10.37,2013-10-04 00:39:00,
2013-10-03 20:44:00,70.7,62.0,30.06,NE,45,0.0,0.0,74,0.00,CLR,,0.00,WeatherDisplay:10.37,2013-10-04 00:44:00,
2013-10-03 20:49:00,70.3,61.7,30.06,NE,45,0.0,0.0,74,0.00,CLR,,0.00,WeatherDisplay:10.37,2013-10-04 00:49:00,
2013-10-03 20:54:00,70.3,61.7,30.06,NE,45,0.0,0.0,74,0.00,CLR,,0.00,WeatherDisplay:10.37,2013-10-04 00:54:00,
2013-10-03 20:59:00,70.3,61.7,30.06,NE,45,0.0,0.0,74,0.00,CLR,,0.00,WeatherDisplay:10.37,2013-10-04 00:59:00,
2013-10-03 21:00:00,55.9,27.2,30.14,North,8,0.0,0.0,33,0.00,CL,CL,0.00,WeatherDisplay:10.37,2013-10-04 01:00:00,
2013-10-03 21:04:00,70.2,62.6,30.06,NE,45,0.0,0.0,77,0.00,CLR,,0.00,WeatherDisplay:10.37,2013-10-04 01:04:00,
2013-10-03 21:09:00,70.0,62.4,30.06,NE,45,0.0,0.0,77,0.00,CLR,,0.00,WeatherDisplay:10.37,2013-10-04 01:09:00,
2013-10-03 21:14:00,69.8,62.3,30.06,NE,45,0.0,0.0,77,0.00,CLR,,0.00,WeatherDisplay:10.37,2013-10-04 01:14:00,
2013-10-03 21:19:00,69.6,62.1,30.06,NE,45,0.0,0.0,77,0.00,CLR,,0.00,WeatherDisplay:10.37,2013-10-04 01:19:00,
2013-10-03 21:24:00,69.6,62.1,30.06,NE,45,0.0,0.0,77,0.00,CLR,,0.00,WeatherDisplay:10.37,2013-10-04 01:24:00,
2013-10-03 21:29:00,69.4,61.9,30.06,NE,45,0.0,0.0,77,0.00,CLR,,0.00,WeatherDisplay:10.37,2013-10-04 01:29:00,
2013-10-03 21:34:00,69.3,62.1,30.06,NE,45,0.0,0.0,78,0.00,CLR,,0.00,WeatherDisplay:10.37,2013-10-04 01:34:00,
2013-10-03 21:39:00,69.1,61.9,30.06,NE,45,0.0,0.0,78,0.00,CLR,,0.00,WeatherDisplay:10.37,2013-10-04 01:39:00,
2013-10-03 21:44:00,69.1,61.9,30.06,NE,45,0.0,0.0,78,0.00,CLR,,0.00,WeatherDisplay:10.37,2013-10-04 01:44:00,
2013-10-03 21:49:00,69.1,61.9,30.03,NE,45,0.0,0.0,78,0.00,CLR,,0.00,WeatherDisplay:10.37,2013-10-04 01:49:00,
2013-10-03 21:54:00,69.1,61.9,30.03,NE,45,0.0,0.0,78,0.00,CLR,,0.00,WeatherDisplay:10.37,2013-10-04 01:54:00,
2013-10-03 21:59:00,69.1,61.9,30.03,NE,45,0.0,0.0,78,0.00,CLR,,0.00,WeatherDisplay:10.37,2013-10-04 01:59:00,
2013-10-03 22:00:00,54.7,28.9,30.14,North,8,0.0,0.0,37,0.00,CL,CL,0.00,WeatherDisplay:10.37,2013-10-04 02:00:00,
2013-10-03 22:04:00,68.9,61.8,30.06,NE,45,0.0,0.0,78,0.00,CLR,,0.00,WeatherDisplay:10.37,2013-10-04 02:04:00,
2013-10-03 22:09:00,68.7,61.6,30.06,NE,45,0.0,0.0,78,0.00,CLR,,0.00,WeatherDisplay:10.37,2013-10-04 02:09:00,
2013-10-03 22:14:00,68.7,61.9,30.06,NE,45,0.0,0.0,79,0.00,CLR,,0.00,WeatherDisplay:10.37,2013-10-04 02:14:00,
2013-10-03 22:19:00,68.7,61.9,30.03,East,90,1.2,1.2,79,0.00,CLR,,0.00,WeatherDisplay:10.37,2013-10-04 02:19:00,
2013-10-03 22:24:00,68.9,62.5,30.03,East,90,1.2,0.0,80,0.00,CLR,,0.00,WeatherDisplay:10.37,2013-10-04 02:24:00,
2013-10-03 22:29:00,69.1,62.6,30.03,East,90,1.2,0.0,80,0.00,CLR,,0.00,WeatherDisplay:10.37,2013-10-04 02:29:00,
2013-10-03 22:34:00,69.1,62.6,30.03,East,90,1.2,0.0,80,0.00,CLR,,0.00,WeatherDisplay:10.37,2013-10-04 02:34:00,
2013-10-03 22:39:00,69.1,62.6,30.03,East,90,0.0,0.0,80,0.00,CLR,,0.00,WeatherDisplay:10.37,2013-10-04 02:39:00,
2013-10-03 22:44:00,68.9,62.5,30.03,East,90,1.2,0.0,80,0.00,CLR,,0.00,WeatherDisplay:10.37,2013-10-04 02:44:00,
2013-10-03 22:49:00,68.9,62.8,30.06,East,90,0.0,0.0,81,0.00,CLR,,0.00,WeatherDisplay:10.37,2013-10-04 02:49:00,
2013-10-03 22:54:00,68.7,62.3,30.06,SSW,202,0.0,0.0,80,0.00,CLR,,0.00,WeatherDisplay:10.37,2013-10-04 02:54:00,
2013-10-03 22:59:00,68.7,62.7,30.06,South,180,1.2,0.0,81,0.00,CLR,,0.00,WeatherDisplay:10.37,2013-10-04 02:59:00,
2013-10-03 23:00:00,54.1,30.3,30.14,North,8,0.0,0.0,40,0.00,CL,CL,0.00,WeatherDisplay:10.37,2013-10-04 03:00:00,
2013-10-03 23:04:00,68.7,62.7,30.06,South,180,1.2,1.2,81,0.00,CLR,,0.00,WeatherDisplay:10.37,2013-10-04 03:04:00,
2013-10-03 23:09:00,68.7,62.7,30.06,South,180,2.3,0.0,81,0.00,CLR,,0.00,WeatherDisplay:10.37,2013-10-04 03:09:00,